Погода в Красноильске

Украина / Черновицкая область     48°00′53″N   25°35′13″E
В апреле 2022 года жителям России запретили посещать сайт meteo.paraplan.net по решению Генеральной прокуратуры. Аудитория сайта уменьшилась в 10 раз. Владельцы сайта не видят смысла в поддержке погодного сервера в таких условиях. Сайт будет закрыт в октябре.
темп.,
°C
ветер,
м/с
пор.,
м/с
влажн.,
%
обл.,
%
осадки,
мм/ч
давл.,
гПа
погр.,
м
25 сентября, вс
вс2500:00+4юз228685 0.0 102028
03:00+4юз2285100 0.0 102035
06:00+4юз228392 0.0 101936
09:00+8юз226734 0.0 1018133
12:00+16з0247100 0.0 10161068
15:00+17ююз034499 0.0 10141601
18:00+13з2568100 0.1 1015191
21:00+10зюз117764 0.1 101512
26 сентября, пн
пн2600:00+9ююз2277100 0.0 101520
03:00+8ююз2284100 0.0 101434
06:00+8юз3280100 0.0 101233
09:00+11юз2367100 0.0 101187
12:00+18ююз1447100 0.0 10091136
15:00+13с2369100 0.0 1009231
18:00+13вюв1174100 0.0 100842
21:00+11ююв1179100 0.1 100816
27 сентября, вт
вт2700:00+11ю2289100 0.5 100751
03:00+11ю2298100 3.7 100567
06:00+11ю1198100 3.1 100319
09:00+11ю0198100 3.9 100126
12:00+11ссз2298100 0.1 1001171
15:00+11сз2596100 0.7 1002347
18:00+12юз239278 4.5 1001100
21:00+9зюз229256 4.5 100224
28 сентября, ср
ср2800:00+8юз339175 0.0 100344
03:00+9юз229098 0.0 100227
06:00+8юз2291100 0.0 100320
09:00+11юз1188100 0.3 100372
12:00+10с2296100 0.9 1004157
15:00+15ююз136622 1.2 10031069
18:00+14ююв01675 0.1 100418
21:00+9юз22845 0.1 100622
29 сентября, чт
чт2900:00+8юз328312 0.0 100738
03:00+8юз228199 0.0 100731
06:00+9юз2281100 0.0 100636
09:00+12юз227498 0.0 100683
12:00+17ю2558100 0.0 1005689
15:00+15ю2371100 0.0 1006104
18:00+14юз2476100 0.0 1007107
21:00+13юз2285100 0.1 100845